Regional Weather Roundup
Issued by NWS Charleston, SC

Current Version | Previous Version | Graphics & Text | Print | Product List | Glossary On
Versions: 1 2 3 4 5 6 7 8 9 10 11 12 13 14 15 16 17 18 19 20 21 22 23 24 25 26 27 28 29 30 31 32 33 34 35 36 37 38 39 40 41 42 43 44 45 46 47 48 49 50
000
ASUS42 KCHS 040012
RWRCHS

REGIONAL WEATHER ROUNDUP
NATIONAL WEATHER SERVICE CHARLESTON SC
800 PM EDT SUN MAY 03 2015

NOTE: "FAIR" INDICATES FEW OR NO CLOUDS BELOW 12,000 FEET WITH NO
SIGNIFICANT WEATHER AND/OR OBSTRUCTIONS TO VISIBILITY.

NOT ALL STATIONS ARE QUALITY CONTROLLED BY THE NATIONAL
WEATHER SERVICE. USE DATA WITH CAUTION...ESPECIALLY
DEWPOINT OBSERVATIONS.

SCZ027-030-031-034>040-042>050-040100-
...SOUTHEAST SOUTH CAROLINA...

CITY           SKY/WX    TMP DP  RH WIND       PRES   REMARKS
N CHARLESTON   PTCLDY    70  57  63 SE6       30.17R
6HR MIN TEMP:  70; 6HR MAX TEMP:  81;

WATERFRONT PRK   N/A     70 N/A N/A SE10        N/A
MOUNT PLEASANT FAIR      68  61  77 MISG      30.18R
PINOPOLIS      NOT AVBL
MONCKS CORNER  FAIR      72  57  60 SE5       30.17R
SUMMERVILLE    FAIR      73  55  53 SE5       30.17R
BEAUFORT MCAS  CLEAR     73  53  49 S3        30.16R
6HR MIN TEMP:  73; 6HR MAX TEMP:  82;

BEAUFORT ARPT  FAIR      72  54  53 CALM      30.16R
HILTON HEAD IS CLEAR     72  57  60 CALM      30.18R
WALTERBORO     MOCLDY    72  54  53 S8        30.16R
ALLENDALE      FAIR      73  55  53 CALM      30.14R

...SOUTHERN MIDLANDS AND PEE DEE...

CITY           SKY/WX    TMP DP  RH WIND       PRES   REMARKS
GEORGETOWN     NOT AVBL
KINGSTREE      NOT AVBL
ORANGEBURG     CLEAR     75  51  43 SE3       30.15R
6HR MIN TEMP:  75; 6HR MAX TEMP:  81;

BARNWELL       FAIR      75  54  46 CALM      30.15R
AIKEN          FAIR      72  50  46 CALM      30.18R
MANNING        FAIR      70  50  49 SE5       30.16R
COLUMBIA       PTCLDY    76  54  46 S5        30.14R
6HR MIN TEMP:  76; 6HR MAX TEMP:  82;

SUMTER         CLEAR     74  50  43 S3        30.13S
6HR MIN TEMP:  74; 6HR MAX TEMP:  82;

FLORENCE       CLEAR     73  51  46 SE10      30.16R
6HR MIN TEMP:  73; 6HR MAX TEMP:  83;

MYRTLE BEACH   CLEAR     70  57  64 S10       30.21R
N MYRTLE BEACH CLEAR     69  57  65 SE5       30.19S
6HR MIN TEMP:  69; 6HR MAX TEMP:  74;


$$

GAZ063-065-086>088-099>101-113>116-118-119-134>141-150-040100-
...SOUTHEAST GEORGIA...

CITY           SKY/WX    TMP DP  RH WIND       PRES   REMARKS
SAVANNAH ARPT  PTCLDY    71  48  43 S7        30.17R
6HR MIN TEMP:  71; 6HR MAX TEMP:  81;

HUNTER AAF     CLEAR     72  52  50 S6        30.15R
6HR MIN TEMP:  72; 6HR MAX TEMP:  80;

FORT STEWART   CLEAR     73  49  43 SE3       30.15R
6HR MIN TEMP:  73; 6HR MAX TEMP:  81; 6HR PCP: TRACE;

STATESBORO       N/A     73  59  61 CALM      30.15R
SYLVANIA       CLEAR     74  56  54 CALM      30.16R
CLAXTON        MOCLDY    73  55  53 SE5       30.15R

...CSRA...CENTRAL AND FAR SOUTHEAST GEORGIA...

CITY           SKY/WX    TMP DP  RH WIND       PRES   REMARKS
THOMSON        CLEAR     73  60  63 CALM      30.19R
AUGUSTA-BUSH   CLEAR     71  58  63 CALM      30.13S
6HR MIN TEMP:  70; 6HR MAX TEMP:  82;

AUGUSTA-DANIEL CLEAR     77  48  35 S3        30.15R
SWAINSBORO     NOT AVBL
VIDALIA        CLEAR     73  54  49 CALM      30.15S
EASTMAN        FAIR      75  56  50 S3        30.16S
HAZLEHURST     FAIR      75  51  43 CALM      30.14R
ALMA           CLEAR     74  51  44 SE6       30.14R
6HR MIN TEMP:  74; 6HR MAX TEMP:  82;

WAYCROSS       CLEAR     78  51  38 SE8       30.15R
JESUP          FAIR      75  50  41 S5        30.17R
BAXLEY         CLOUDY    77  52  41 E3        30.14R
BRUNSWICK      CLEAR     73  45  35 SE5       30.18S
SAINT SIMONS   CLEAR     72  50  45 SE5       30.18R
6HR MIN TEMP:  72; 6HR MAX TEMP:  79;


$$

SCZ027-028-034-036>038-045-046-048>050-GAZ119-141-040100-
...LAKE AND SUPPLEMENTAL COASTAL OBSERVATIONS...

STATION/POSITION TIME  TEMP    WIND        PRES    WAVE   SWELL
                       AIR SEA DIR/SP/G            HT/PER HT/PER/DIR
                 (UTC) (F)     (DEG/KT/KT) (MB)    (FT/S) (FT/S/D)
UPR LAKE MARION  NOT AVBL
WINYAH BAY       NOT AVBL
LAKE MURRAY      2300   81        CALM     1019.6S
ACE BASIN NERRS  NOT AVBL
FORT PULASKI     2300          160/  4/  7   N/A
SAPELO ISLAND    2300   77     150/  6     1021.0S

$$

ANZ835-935-AMZ111-154-330-350-352-354-370-450-454-472-040100-
...C-MAN AND BUOY OBSERVATIONS...

STATION/POSITION TIME  TEMP    WIND        PRES    WAVE   SWELL
                       AIR SEA DIR/SP/G            HT/PER HT/PER/DIR
                 (UTC) (F)     (DEG/KT/KT) (MB)    (FT/S) (FT/S/D)
BUOY 41004       2350   72 75  130/  6/  8 1021.8R   2/10   2/10
BUOY 41008       2350   73 74  170/  4/  6 1022.1R   3/12   3/ 70/12
FOLLY BEACH CMAN 0000   70     130/ 11/ 12 1022.0R
CAPERS NEARSHORE 2308   71     150/  8/ 10 1021.7R
FRIPP NEARSHORE  2300   73     200/  8/ 10 1020.7S


STATION/POSITION TIME  TEMP    WIND        PRES    WAVE   SWELL
                       AIR SEA DIR/SP/G            HT/PER HT/PER/DIR
                 (UTC) (F)     (DEG/KT/KT) (MB)    (FT/S) (FT/S/D)
5E ST. MARYS GA  2321      74                N/A     2/12   2/ 60/12
FRYING PAN BUOY  2350   73 74  140/  6/  8 1023.4R   4/13   3/100/13
BUOY 41025       2350   67 61  230/  6/  6 1022.2S   4/11   5/ 70/11
CAPE LOOKOUT NC  0000   67     210/  4/  5 1022.3R
BUOY 41002       2350   69 70   40/ 14/ 17 1023.1R   9/13   8/ 30/13
BUOY 41010       2320   73 78   70/ 12/ 16 1021.6R
ST AUGUSTINE FL  0000   72 73  100/  6/  7 1022.7R


$$


USA.gov is the U.S. government's official web portal to all federal, state and local government web resources and services.